Time,TemperatureF,DewpointF,PressureIn,WindDirection,WindDirectionDegrees,WindSpeedMPH,WindSpeedGustMPH,Humidity,HourlyPrecipIn,Conditions,Clouds,dailyrainin,SolarRadiationWatts/m^2,SoftwareType,DateUTC
2013-03-19 00:06:00,10.5,6.0,29.90,WNW,296,15.0,22.0,82,0.00,,,0.00,0,weatherlink.com 1.10,2013-03-19 05:06:00,
2013-03-19 00:21:00,10.3,6.0,29.90,West,268,8.0,26.0,81,0.00,,,0.00,0,weatherlink.com 1.10,2013-03-19 05:21:00,
2013-03-19 00:37:00,9.9,6.0,29.90,WNW,290,11.0,19.0,82,0.00,,,0.00,0,weatherlink.com 1.10,2013-03-19 05:37:00,
2013-03-19 00:52:00,9.9,5.0,29.90,West,276,12.0,20.0,81,0.00,,,0.00,0,weatherlink.com 1.10,2013-03-19 05:52:00,
2013-03-19 01:07:00,9.6,5.0,29.91,WNW,282,13.0,21.0,81,0.00,,,0.00,0,weatherlink.com 1.10,2013-03-19 06:07:00,
2013-03-19 01:22:00,9.4,5.0,29.91,WNW,297,17.0,23.0,81,0.00,,,0.00,0,weatherlink.com 1.10,2013-03-19 06:22:00,
2013-03-19 01:37:00,9.3,5.0,29.91,WNW,294,10.0,19.0,81,0.00,,,0.00,0,weatherlink.com 1.10,2013-03-19 06:37:00,
2013-03-19 01:52:00,9.2,5.0,29.92,WNW,286,9.0,19.0,81,0.00,,,0.00,0,weatherlink.com 1.10,2013-03-19 06:52:00,
2013-03-19 02:22:00,8.8,4.0,29.93,West,276,7.0,17.0,80,0.00,,,0.00,0,weatherlink.com 1.10,2013-03-19 07:22:00,
2013-03-19 02:37:00,8.6,4.0,29.93,WNW,296,6.0,18.0,81,0.00,,,0.00,0,weatherlink.com 1.10,2013-03-19 07:37:00,
2013-03-19 02:52:00,8.5,4.0,29.94,West,273,10.0,16.0,80,0.00,,,0.00,0,weatherlink.com 1.10,2013-03-19 07:52:00,
2013-03-19 03:07:00,8.3,3.0,29.94,West,281,8.0,14.0,80,0.00,,,0.00,0,weatherlink.com 1.10,2013-03-19 08:07:00,
2013-03-19 03:22:00,8.2,3.0,29.95,WNW,284,9.0,17.0,80,0.00,,,0.00,0,weatherlink.com 1.10,2013-03-19 08:22:00,
2013-03-19 03:37:00,8.0,3.0,29.95,WNW,284,7.0,17.0,79,0.00,,,0.00,0,weatherlink.com 1.10,2013-03-19 08:37:00,
2013-03-19 03:52:00,7.9,3.0,29.96,West,269,4.0,15.0,79,0.00,,,0.00,0,weatherlink.com 1.10,2013-03-19 08:52:00,
2013-03-19 04:08:00,8.0,3.0,29.96,WNW,283,5.0,18.0,79,0.00,,,0.00,0,weatherlink.com 1.10,2013-03-19 09:08:00,
2013-03-19 04:23:00,7.8,3.0,29.97,WSW,246,11.0,17.0,79,0.00,,,0.00,0,weatherlink.com 1.10,2013-03-19 09:23:00,
2013-03-19 04:38:00,7.4,2.0,29.97,WNW,287,10.0,16.0,79,0.00,,,0.00,0,weatherlink.com 1.10,2013-03-19 09:38:00,
2013-03-19 04:53:00,7.2,2.0,29.98,West,260,9.0,15.0,79,0.00,,,0.00,0,weatherlink.com 1.10,2013-03-19 09:53:00,
2013-03-19 05:08:00,6.7,2.0,29.99,West,260,13.0,16.0,79,0.00,,,0.00,0,weatherlink.com 1.10,2013-03-19 10:08:00,
2013-03-19 05:23:00,6.4,1.0,29.99,West,280,7.0,15.0,79,0.00,,,0.00,0,weatherlink.com 1.10,2013-03-19 10:23:00,
2013-03-19 05:38:00,6.3,1.0,30.00,West,272,0.0,13.0,79,0.00,,,0.00,0,weatherlink.com 1.10,2013-03-19 10:38:00,
2013-03-19 05:53:00,6.2,1.0,30.01,West,280,7.0,13.0,79,0.00,,,0.00,0,weatherlink.com 1.10,2013-03-19 10:53:00,
2013-03-19 06:08:00,6.0,1.0,30.02,West,271,4.0,12.0,79,0.00,,,0.00,0,weatherlink.com 1.10,2013-03-19 11:08:00,
2013-03-19 06:23:00,5.9,1.0,30.03,West,276,12.0,14.0,79,0.00,,,0.00,0,weatherlink.com 1.10,2013-03-19 11:23:00,
2013-03-19 06:38:00,5.6,0.0,30.03,West,277,7.0,13.0,79,0.00,,,0.00,0,weatherlink.com 1.10,2013-03-19 11:38:00,
2013-03-19 06:53:00,5.2,0.0,30.04,WNW,293,9.0,12.0,79,0.00,,,0.00,0,weatherlink.com 1.10,2013-03-19 11:53:00,
2013-03-19 07:08:00,5.1,0.0,30.05,West,272,6.0,13.0,79,0.00,,,0.00,0,weatherlink.com 1.10,2013-03-19 12:08:00,
2013-03-19 07:24:00,5.0,2.0,30.06,WNW,288,4.0,14.0,88,0.00,,,0.00,5,weatherlink.com 1.10,2013-03-19 12:24:00,
2013-03-19 07:39:00,4.9,0.0,30.07,WNW,285,6.0,13.0,79,0.00,,,0.00,12,weatherlink.com 1.10,2013-03-19 12:39:00,
2013-03-19 07:54:00,5.0,0.0,30.08,West,279,7.0,14.0,79,0.00,,,0.00,19,weatherlink.com 1.10,2013-03-19 12:54:00,
2013-03-19 08:09:00,5.3,0.0,30.08,WNW,283,5.0,12.0,78,0.00,,,0.00,25,weatherlink.com 1.10,2013-03-19 13:09:00,
2013-03-19 08:24:00,5.5,0.0,30.09,WNW,290,11.0,13.0,78,0.00,,,0.00,40,weatherlink.com 1.10,2013-03-19 13:24:00,
2013-03-19 08:39:00,5.8,0.0,30.09,WNW,296,7.0,15.0,77,0.00,,,0.00,84,weatherlink.com 1.10,2013-03-19 13:39:00,
2013-03-19 08:54:00,6.4,0.0,30.10,West,275,3.0,16.0,76,0.00,,,0.00,134,weatherlink.com 1.10,2013-03-19 13:54:00,
2013-03-19 09:09:00,7.1,1.0,30.12,West,264,6.0,12.0,75,0.00,,,0.00,167,weatherlink.com 1.10,2013-03-19 14:09:00,
2013-03-19 09:24:00,7.7,1.0,30.12,West,275,7.0,16.0,74,0.00,,,0.00,204,weatherlink.com 1.10,2013-03-19 14:24:00,
2013-03-19 09:39:00,8.2,1.0,30.13,West,268,9.0,14.0,73,0.00,,,0.00,388,weatherlink.com 1.10,2013-03-19 14:39:00,
2013-03-19 09:54:00,8.6,1.0,30.14,WNW,286,9.0,14.0,72,0.00,,,0.00,431,weatherlink.com 1.10,2013-03-19 14:54:00,
2013-03-19 10:09:00,9.5,2.0,30.14,WNW,288,7.0,14.0,71,0.00,,,0.00,475,weatherlink.com 1.10,2013-03-19 15:09:00,
2013-03-19 10:39:00,10.2,2.0,30.15,WSW,257,9.0,13.0,70,0.00,,,0.00,550,weatherlink.com 1.10,2013-03-19 15:39:00,
2013-03-19 10:55:00,10.9,3.0,30.16,West,275,10.0,15.0,70,0.00,,,0.00,585,weatherlink.com 1.10,2013-03-19 15:55:00,
2013-03-19 11:10:00,11.6,3.0,30.16,West,266,6.0,17.0,69,0.00,,,0.00,619,weatherlink.com 1.10,2013-03-19 16:10:00,
2013-03-19 11:25:00,12.1,3.0,30.16,WSW,249,6.0,19.0,68,0.00,,,0.00,643,weatherlink.com 1.10,2013-03-19 16:25:00,
2013-03-19 11:40:00,12.6,4.0,30.16,WNW,288,9.0,16.0,69,0.00,,,0.00,671,weatherlink.com 1.10,2013-03-19 16:40:00,
2013-03-19 11:55:00,13.3,5.0,30.16,WNW,284,9.0,16.0,68,0.00,,,0.00,696,weatherlink.com 1.10,2013-03-19 16:55:00,
2013-03-19 12:10:00,13.6,5.0,30.16,West,273,9.0,15.0,68,0.00,,,0.00,714,weatherlink.com 1.10,2013-03-19 17:10:00,
2013-03-19 12:25:00,14.6,5.0,30.17,WNW,294,8.0,14.0,67,0.00,,,0.00,740,weatherlink.com 1.10,2013-03-19 17:25:00,
2013-03-19 12:40:00,15.2,6.0,30.17,West,273,8.0,15.0,67,0.00,,,0.00,696,weatherlink.com 1.10,2013-03-19 17:40:00,
2013-03-19 12:55:00,15.3,5.0,30.17,WNW,299,8.0,15.0,65,0.00,,,0.00,650,weatherlink.com 1.10,2013-03-19 17:55:00,
2013-03-19 13:10:00,16.0,6.0,30.16,WNW,287,8.0,12.0,66,0.00,,,0.00,714,weatherlink.com 1.10,2013-03-19 18:10:00,
2013-03-19 13:25:00,16.9,7.0,30.17,WNW,302,11.0,15.0,66,0.00,,,0.00,761,weatherlink.com 1.10,2013-03-19 18:25:00,
2013-03-19 13:40:00,17.6,7.0,30.17,WNW,289,15.0,15.0,64,0.00,,,0.00,752,weatherlink.com 1.10,2013-03-19 18:40:00,
2013-03-19 13:55:00,18.2,7.0,30.17,West,277,13.0,18.0,62,0.00,,,0.00,703,weatherlink.com 1.10,2013-03-19 18:55:00,
2013-03-19 14:11:00,18.9,7.0,30.16,West,267,5.0,14.0,61,0.00,,,0.00,752,weatherlink.com 1.10,2013-03-19 19:11:00,
2013-03-19 14:26:00,19.4,8.0,30.16,West,271,2.0,19.0,61,0.00,,,0.00,577,weatherlink.com 1.10,2013-03-19 19:26:00,
2013-03-19 14:56:00,19.7,8.0,30.17,WNW,284,12.0,17.0,61,0.00,,,0.00,689,weatherlink.com 1.10,2013-03-19 19:56:00,
2013-03-19 15:11:00,19.8,9.0,30.17,WNW,289,5.0,19.0,63,0.00,,,0.00,664,weatherlink.com 1.10,2013-03-19 20:11:00,
2013-03-19 15:26:00,19.8,8.0,30.17,West,267,7.0,19.0,61,0.00,,,0.00,638,weatherlink.com 1.10,2013-03-19 20:26:00,
2013-03-19 15:41:00,20.1,9.0,30.18,WNW,296,15.0,19.0,62,0.00,,,0.00,610,weatherlink.com 1.10,2013-03-19 20:41:00,
2013-03-19 15:56:00,19.9,8.0,30.18,West,281,8.0,16.0,59,0.00,,,0.00,522,weatherlink.com 1.10,2013-03-19 20:56:00,
2013-03-19 16:11:00,20.4,8.0,30.19,West,271,6.0,19.0,60,0.00,,,0.00,587,weatherlink.com 1.10,2013-03-19 21:11:00,
2013-03-19 16:26:00,20.2,7.0,30.19,NNW,327,14.0,24.0,56,0.00,,,0.00,443,weatherlink.com 1.10,2013-03-19 21:26:00,
2013-03-19 16:41:00,20.0,7.0,30.19,WNW,286,6.0,20.0,58,0.00,,,0.00,371,weatherlink.com 1.10,2013-03-19 21:41:00,
2013-03-19 16:56:00,19.3,8.0,30.20,West,268,9.0,17.0,61,0.00,,,0.00,341,weatherlink.com 1.10,2013-03-19 21:56:00,
2013-03-19 17:11:00,19.4,7.0,30.20,WNW,283,12.0,19.0,60,0.00,,,0.00,378,weatherlink.com 1.10,2013-03-19 22:11:00,
2013-03-19 17:27:00,18.8,8.0,30.21,WNW,300,12.0,17.0,62,0.00,,,0.00,320,weatherlink.com 1.10,2013-03-19 22:27:00,
2013-03-19 17:42:00,18.2,6.0,30.21,West,268,10.0,18.0,60,0.00,,,0.00,302,weatherlink.com 1.10,2013-03-19 22:42:00,
2013-03-19 17:57:00,17.5,5.0,30.22,West,267,8.0,24.0,59,0.00,,,0.00,243,weatherlink.com 1.10,2013-03-19 22:57:00,
2013-03-19 18:12:00,17.0,5.0,30.23,West,272,8.0,22.0,59,0.00,,,0.00,179,weatherlink.com 1.10,2013-03-19 23:12:00,
2013-03-19 18:27:00,16.3,5.0,30.23,WSW,256,11.0,21.0,60,0.00,,,0.00,125,weatherlink.com 1.10,2013-03-19 23:27:00,
2013-03-19 18:42:00,15.8,5.0,30.24,West,269,8.0,17.0,62,0.00,,,0.00,74,weatherlink.com 1.10,2013-03-19 23:42:00,
2013-03-19 18:57:00,15.2,4.0,30.25,West,279,9.0,21.0,62,0.00,,,0.00,33,weatherlink.com 1.10,2013-03-19 23:57:00,
2013-03-19 19:12:00,14.4,4.0,30.25,West,271,9.0,21.0,63,0.00,,,0.00,14,weatherlink.com 1.10,2013-03-20 00:12:00,
2013-03-19 19:27:00,13.7,4.0,30.25,West,281,10.0,18.0,64,0.00,,,0.00,5,weatherlink.com 1.10,2013-03-20 00:27:00,
2013-03-19 19:42:00,13.1,3.0,30.26,West,279,9.0,18.0,65,0.00,,,0.00,0,weatherlink.com 1.10,2013-03-20 00:42:00,
2013-03-19 19:57:00,12.7,3.0,30.26,West,276,12.0,18.0,66,0.00,,,0.00,0,weatherlink.com 1.10,2013-03-20 00:57:00,
2013-03-19 20:13:00,12.2,3.0,30.27,West,277,3.0,19.0,67,0.00,,,0.00,0,weatherlink.com 1.10,2013-03-20 01:13:00,
2013-03-19 20:28:00,11.7,3.0,30.27,West,276,13.0,18.0,68,0.00,,,0.00,0,weatherlink.com 1.10,2013-03-20 01:28:00,
2013-03-19 20:43:00,11.5,3.0,30.27,WNW,283,8.0,19.0,68,0.00,,,0.00,0,weatherlink.com 1.10,2013-03-20 01:43:00,
2013-03-19 20:58:00,11.3,3.0,30.27,West,276,13.0,19.0,69,0.00,,,0.00,0,weatherlink.com 1.10,2013-03-20 01:58:00,
2013-03-19 21:13:00,11.0,3.0,30.28,WNW,289,11.0,19.0,69,0.00,,,0.00,0,weatherlink.com 1.10,2013-03-20 02:13:00,
2013-03-19 21:28:00,10.7,3.0,30.28,WNW,295,11.0,14.0,70,0.00,,,0.00,0,weatherlink.com 1.10,2013-03-20 02:28:00,
2013-03-19 21:43:00,10.5,3.0,30.28,WNW,299,7.0,15.0,70,0.00,,,0.00,0,weatherlink.com 1.10,2013-03-20 02:43:00,
2013-03-19 21:58:00,10.3,3.0,30.29,West,269,5.0,13.0,71,0.00,,,0.00,0,weatherlink.com 1.10,2013-03-20 02:58:00,
2013-03-19 22:13:00,10.0,2.0,30.28,WNW,284,9.0,15.0,71,0.00,,,0.00,0,weatherlink.com 1.10,2013-03-20 03:13:00,
2013-03-19 22:28:00,10.0,2.0,30.28,WNW,291,6.0,15.0,70,0.00,,,0.00,0,weatherlink.com 1.10,2013-03-20 03:28:00,
2013-03-19 22:43:00,10.0,2.0,30.28,West,272,9.0,15.0,70,0.00,,,0.00,0,weatherlink.com 1.10,2013-03-20 03:43:00,
2013-03-19 22:58:00,9.9,2.0,30.28,WNW,300,7.0,13.0,70,0.00,,,0.00,0,weatherlink.com 1.10,2013-03-20 03:58:00,
2013-03-19 23:13:00,9.4,1.0,30.28,NW,307,7.0,17.0,70,0.00,,,0.00,0,weatherlink.com 1.10,2013-03-20 04:13:00,
2013-03-19 23:28:00,9.2,2.0,30.29,WNW,293,8.0,17.0,72,0.00,,,0.00,0,weatherlink.com 1.10,2013-03-20 04:28:00,
2013-03-19 23:44:00,9.2,2.0,30.29,WNW,286,9.0,15.0,73,0.00,,,0.00,0,weatherlink.com 1.10,2013-03-20 04:44:00,
2013-03-19 23:59:00,9.0,2.0,30.29,West,278,12.0,14.0,73,0.00,,,0.00,0,weatherlink.com 1.10,2013-03-20 04:59:00,